This is the latest recevied weather packets stored in our database for station/object WC4PEM-11. If no packets are shown the sender has not sent any weather packets the latest 10 day(s).
| Time | Temp. | Humidity | Pressure | Rain* | Wind** | Luminosity | Snow |
|---|---|---|---|---|---|---|---|
| 1787602703 | 32.22° C | 66% | 1015.3 hPa | 0 mm | - | - | - |
| 1787602403 | 32.78° C | 61% | 1015.3 hPa | 0 mm | - | - | - |
| 1787602103 | 32.78° C | 59% | 1015.2 hPa | 0 mm | - | - | - |
| 1787601893 | 32.78° C | 59% | 1015.2 hPa | 0 mm | - | - | - |
| 1787601803 | 32.78° C | 59% | 1015.2 hPa | 0 mm | - | - | - |
| 1787601503 | 33.33° C | 58% | 1015.2 hPa | 0 mm | - | - | - |
| 1787601203 | 33.33° C | 57% | 1015.1 hPa | 0 mm | - | - | - |
| 1787600903 | 33.33° C | 58% | 1015.3 hPa | 0 mm | - | - | - |
| 1787600603 | 33.33° C | 58% | 1015 hPa | 0 mm | - | - | - |
| 1787600303 | 33.89° C | 58% | 1015.1 hPa | 0 mm | - | - | - |
| 1787600003 | 33.89° C | 57% | 1015.1 hPa | 0 mm | - | - | - |
| 1787599817 | 33.33° C | 59% | 1015.3 hPa | 0 mm | - | - | - |
| 1787599703 | 33.33° C | 59% | 1015.3 hPa | 0 mm | - | - | - |
| 1787599403 | 33.33° C | 58% | 1015.3 hPa | 0 mm | - | - | - |
| 1787599103 | 33.33° C | 59% | 1015.5 hPa | 0 mm | - | - | - |
| 1787598803 | 33.33° C | 59% | 1015.5 hPa | 0 mm | - | - | - |
| 1787598503 | 33.33° C | 60% | 1015.6 hPa | 0 mm | - | - | - |
| 1787598203 | 32.78° C | 60% | 1015.8 hPa | 0 mm | - | - | - |
| 1787597903 | 32.78° C | 59% | 1015.6 hPa | 0 mm | - | - | - |
| 1787597603 | 32.78° C | 59% | 1015.9 hPa | 0 mm | - | - | - |
| 1787597303 | 32.78° C | 61% | 1016 hPa | 0 mm | - | - | - |
| 1787597003 | 32.78° C | 60% | 1016.1 hPa | 0 mm | - | - | - |
| 1787596703 | 32.78° C | 61% | 1016 hPa | 0 mm | - | - | - |
| 1787596403 | 32.78° C | 62% | 1016 hPa | 0 mm | - | - | - |
| 1787596195 | 32.78° C | 62% | 1016.1 hPa | 0 mm | - | - | - |
* Rain latest hour (hover to see other rain measurements)
** Current wind speed in m/s (hover to see current wind gust speed)